GW5408 Weather Reports


Display with metric or nautical units.
time (UTC)temp
F
wind
direction
speed
MPH
gust
MPH
rain 1hr
in
rain 24hr
in
rain mn
in
humidity
%
barometer
mb
20260505011019 70 197 1.0 6.0 0.00 0.00 0.00 36 1009.1
20260505010521 70 171 1.0 6.0 0.00 0.00 0.00 36 1009.0
20260505010047 70 176 3.0 5.0 0.00 0.00 0.00 34 1009.1
20260505005521 70 209 1.0 7.0 0.00 0.00 0.00 35 1009.2
20260505005021 70 0 1.0 7.0 0.00 0.00 0.00 34 1009.1
20260505004555 70 194 2.0 5.0 0.00 0.00 0.00 33 1009.0
20260505004021 71 277 2.0 6.0 0.00 0.00 0.00 33 1009.2
20260505003525 71 133 1.0 6.0 0.00 0.00 0.00 33 1009.2
20260505003035 71 244 0.0 6.0 0.00 0.00 0.00 35 1009.3
20260505002521 71 194 1.0 6.0 0.00 0.00 0.00 31 1009.2
20260505002020 71 182 0.0 3.0 0.00 0.00 0.00 33 1009.2
20260505001541 72 0 0.0 3.0 0.00 0.00 0.00 31 1009.2
20260505001022 72 180 2.0 3.0 0.00 0.00 0.00 33 1009.3
20260505000520 73 194 1.0 4.0 0.00 0.00 0.00 34 1009.2
20260505000039 73 206 1.0 4.0 0.00 0.00 0.00 31 1009.2
20260504235520 73 294 1.0 4.0 0.00 0.00 0.00 32 1009.3
20260504235020 74 0 1.0 6.0 0.00 0.00 0.00 30 1009.3
20260504234537 74 309 1.0 6.0 0.00 0.00 0.00 31 1009.3
20260504234019 74 327 1.0 6.0 0.00 0.00 0.00 31 1009.2
20260504233521 74 360 1.0 7.0 0.00 0.00 0.00 30 1009.3
20260504233035 74 183 1.0 7.0 0.00 0.00 0.00 29 1009.3
20260504232520 74 306 2.0 9.0 0.00 0.00 0.00 31 1009.3
20260504232020 74 313 3.0 9.0 0.00 0.00 0.00 33 1009.4
20260504231540 74 153 1.0 5.0 0.00 0.00 0.00 30 1009.3
20260504231020 74 168 0.0 5.0 0.00 0.00 0.00 32 1009.3
20260504230524 74 0 1.0 7.0 0.00 0.00 0.00 32 1009.4
20260504230040 74 315 1.0 7.0 0.00 0.00 0.00 32 1009.4
20260504225518 74 14 2.0 6.0 0.00 0.00 0.00 32 1009.5
20260504225020 74 296 2.0 6.0 0.00 0.00 0.00 32 1009.5
20260504224543 74 202 1.0 12.0 0.00 0.00 0.00 31 1009.4
20260504224020 74 319 2.0 12.0 0.00 0.00 0.00 30 1009.6
20260504223520 74 0 2.0 6.0 0.00 0.00 0.00 31 1009.8
20260504223040 74 0 2.0 8.0 0.00 0.00 0.00 31 1009.9
20260504222519 74 0 2.0 8.0 0.00 0.00 0.00 32 1009.9
20260504222020 74 302 2.0 8.0 0.00 0.00 0.00 30 1009.8
20260504221549 74 346 2.0 6.0 0.00 0.00 0.00 31 1009.8
20260504221019 74 337 2.0 6.0 0.00 0.00 0.00 31 1009.9
20260504220520 75 146 1.0 7.0 0.00 0.00 0.00 30 1009.9
20260504220035 75 172 1.0 7.0 0.00 0.00 0.00 31 1009.9
20260504215521 75 273 3.0 7.0 0.00 0.00 0.00 30 1010.0
20260504215021 75 320 1.0 6.0 0.00 0.00 0.00 32 1009.9
20260504214540 75 144 2.0 6.0 0.00 0.00 0.00 30 1010.0
20260504214020 75 209 1.0 6.0 0.00 0.00 0.00 30 1010.0
20260504213520 75 230 1.0 6.0 0.00 0.00 0.00 31 1010.0
20260504213044 74 60 1.0 4.0 0.00 0.00 0.00 33 1010.0
20260504212521 74 267 1.0 6.0 0.00 0.00 0.00 31 1010.2
20260504212020 74 337 2.0 9.0 0.00 0.00 0.00 31 1010.2
20260504211539 74 318 3.0 9.0 0.00 0.00 0.00 31 1010.1
20260504211019 74 353 1.0 6.0 0.00 0.00 0.00 33 1010.0
20260504210520 74 353 1.0 7.0 0.00 0.00 0.00 32 1010.0
20260504210046 73 276 1.0 7.0 0.00 0.00 0.00 33 1010.2
20260504205521 73 315 2.0 7.0 0.00 0.00 0.00 31 1010.2
20260504205024 73 301 2.0 7.0 0.00 0.00 0.00 32 1010.4
20260504204535 73 329 2.0 6.0 0.00 0.00 0.00 33 1010.3
20260504204020 73 337 2.0 6.0 0.00 0.00 0.00 32 1010.4
20260504203520 73 325 1.0 4.0 0.00 0.00 0.00 30 1010.4
20260504203044 72 327 1.0 4.0 0.00 0.00 0.00 34 1010.3
20260504202520 72 293 1.0 6.0 0.00 0.00 0.00 33 1010.4
20260504202019 72 297 2.0 6.0 0.00 0.00 0.00 32 1010.4
20260504201544 72 113 1.0 5.0 0.00 0.00 0.00 32 1010.4
20260504201020 72 322 2.0 5.0 0.00 0.00 0.00 33 1010.5
20260504200520 71 327 2.0 9.0 0.00 0.00 0.00 33 1010.5
20260504200039 71 323 2.0 9.0 0.00 0.00 0.00 34 1010.4
20260504195519 71 356 3.0 6.0 0.00 0.00 0.00 32 1010.5
20260504195020 72 124 2.0 5.0 0.00 0.00 0.00 31 1010.4
20260504194535 71 266 2.0 8.0 0.00 0.00 0.00 39 1010.5
20260504194020 71 299 3.0 8.0 0.00 0.00 0.00 32 1010.6
20260504193521 71 310 4.0 8.0 0.00 0.00 0.00 32 1010.6
20260504193047 71 323 2.0 6.0 0.00 0.00 0.00 32 1010.6
20260504192520 71 327 3.0 6.0 0.00 0.00 0.00 32 1010.5
20260504192023 71 353 2.0 6.0 0.00 0.00 0.00 34 1010.6
20260504191606 71 303 2.0 11.0 0.00 0.00 0.00 33 1010.7
20260504191020 70 209 2.0 11.0 0.00 0.00 0.00 34 1010.7
20260504190520 70 322 3.0 9.0 0.00 0.00 0.00 32 1010.7
20260504190041 70 306 4.0 9.0 0.00 0.00 0.00 33 1010.6
20260504185520 70 307 2.0 9.0 0.00 0.00 0.00 35 1010.7
20260504185019 70 129 2.0 6.0 0.00 0.00 0.00 34 1010.7
20260504184550 70 158 2.0 8.0 0.00 0.00 0.00 35 1010.7
20260504184020 69 280 2.0 8.0 0.00 0.00 0.00 37 1010.8
20260504183520 70 312 2.0 8.0 0.00 0.00 0.00 35 1010.7
20260504183035 70 300 4.0 8.0 0.00 0.00 0.00 36 1010.7
20260504182524 70 311 1.0 6.0 0.00 0.00 0.00 33 1010.8
20260504182019 69 147 1.0 8.0 0.00 0.00 0.00 36 1010.8
20260504181535 69 331 2.0 9.0 0.00 0.00 0.00 35 1010.8
20260504181021 69 6 4.0 9.0 0.00 0.00 0.00 34 1010.7
20260504180520 69 275 2.0 8.0 0.00 0.00 0.00 35 1010.7
20260504180043 68 289 3.0 8.0 0.00 0.00 0.00 34 1010.7
20260504175521 69 348 2.0 10.0 0.00 0.00 0.00 34 1010.7
20260504175022 68 108 2.0 10.0 0.00 0.00 0.00 38 1010.7
20260504174539 68 292 3.0 6.0 0.00 0.00 0.00 37 1010.7
20260504174020 68 280 1.0 4.0 0.00 0.00 0.00 35 1010.6
20260504173521 68 183 1.0 4.0 0.00 0.00 0.00 37 1010.6
20260504173038 68 196 2.0 8.0 0.00 0.00 0.00 36 1010.4
20260504172520 67 262 2.0 8.0 0.00 0.00 0.00 35 1010.4
20260504172021 67 220 1.0 10.0 0.00 0.00 0.00 36 1010.4
20260504171539 67 244 2.0 10.0 0.00 0.00 0.00 36 1010.3
20260504171023 66 263 2.0 13.0 0.00 0.00 0.00 39 1010.3
20260504170519 66 312 4.0 13.0 0.00 0.00 0.00 37 1010.4
20260504151019 60 138 0.0 6.0 0.00 0.00 0.00 54 1010.2
20260504150524 60 112 2.0 7.0 0.00 0.00 0.00 50 1010.4
20260504141024 51 0 0.0 4.0 0.00 0.00 0.00 65 1010.2
20260504140520 51 0 0.0 4.0 0.00 0.00 0.00 69 1010.2
20260504130518 47 223 0.0 1.0 0.00 0.00 0.00 74 1009.5
20260504110521 48 237 0.0 1.0 0.00 0.00 0.00 72 1009.0
20260504100525 49 237 0.0 1.0 0.00 0.00 0.00 70 1009.3
20260504081538 52 234 1.0 1.0 0.00 0.00 0.00 64 1008.9
20260504081025 52 234 0.0 1.0 0.00 0.00 0.00 65 1008.9
20260504080521 52 235 0.0 1.0 0.00 0.00 0.00 64 1009.0
20260504050521 59 230 0.0 1.0 0.00 0.00 0.00 54 1009.0
20260504045521 60 230 0.0 1.0 0.00 0.00 0.00 51 1009.0
20260504045020 60 0 0.0 1.0 0.00 0.00 0.00 53 1008.9
20260504044539 60 230 1.0 1.0 0.00 0.00 0.00 51 1008.9
20260504044021 60 230 1.0 2.0 0.00 0.00 0.00 51 1008.9
20260504043531 60 230 0.0 2.0 0.00 0.00 0.00 50 1008.9
20260504043042 59 230 1.0 2.0 0.00 0.00 0.00 53 1008.9
20260504042521 59 0 0.0 1.0 0.00 0.00 0.00 52 1008.9
20260504042022 60 230 0.0 1.0 0.00 0.00 0.00 51 1008.9
20260504041535 60 230 1.0 2.0 0.00 0.00 0.00 51 1008.9
20260504041020 60 0 0.0 2.0 0.00 0.00 0.00 50 1008.9
20260504040521 60 230 1.0 2.0 0.00 0.00 0.00 51 1008.8
20260504040036 60 230 1.0 2.0 0.00 0.00 0.00 51 1008.8
20260504035523 60 230 1.0 2.0 0.00 0.00 0.00 50 1008.8
20260504035021 61 230 1.0 2.0 0.00 0.00 0.00 53 1008.7
20260504034552 61 230 1.0 2.0 0.00 0.00 0.00 52 1008.6
20260504034021 61 230 1.0 1.0 0.00 0.00 0.00 51 1008.6
20260504033521 61 230 0.0 1.0 0.00 0.00 0.00 50 1008.4
20260504033051 62 0 0.0 1.0 0.00 0.00 0.00 51 1008.5
20260504032521 62 230 1.0 2.0 0.00 0.00 0.00 51 1008.4
20260504032021 63 230 1.0 3.0 0.00 0.00 0.00 51 1008.4
20260504031547 63 230 1.0 3.0 0.00 0.00 0.00 51 1008.4
20260504031021 64 230 1.0 3.0 0.00 0.00 0.00 50 1008.5
20260504030520 64 230 1.0 2.0 0.00 0.00 0.00 47 1008.4
20260504030052 64 230 1.0 2.0 0.00 0.00 0.00 46 1008.4
20260504025521 65 230 1.0 2.0 0.00 0.00 0.00 46 1008.5
20260504025021 65 230 1.0 2.0 0.00 0.00 0.00 44 1008.5
20260504024541 65 230 2.0 2.0 0.00 0.00 0.00 45 1008.5
20260504024020 65 230 1.0 2.0 0.00 0.00 0.00 45 1008.5
20260504023521 65 230 1.0 2.0 0.00 0.00 0.00 45 1008.5
20260504023041 65 227 1.0 2.0 0.00 0.00 0.00 47 1008.6
20260504022525 66 227 2.0 2.0 0.00 0.00 0.00 46 1008.6
20260504022020 66 227 1.0 2.0 0.00 0.00 0.00 46 1008.6
20260504021540 66 227 1.0 2.0 0.00 0.00 0.00 44 1008.6
20260504021020 67 227 2.0 2.0 0.00 0.00 0.00 43 1008.6
20260504020525 67 226 1.0 2.0 0.00 0.00 0.00 41 1008.6
20260504020039 68 226 1.0 2.0 0.00 0.00 0.00 41 1008.7
20260504015521 68 226 1.0 2.0 0.00 0.00 0.00 39 1008.7
20260504015024 68 226 0.0 2.0 0.00 0.00 0.00 40 1008.8
20260504014538 69 226 0.0 2.0 0.00 0.00 0.00 39 1008.8
20260504014024 69 226 1.0 2.0 0.00 0.00 0.00 38 1008.7
20260504013524 69 226 0.0 2.0 0.00 0.00 0.00 38 1008.9
20260504013038 69 226 1.0 2.0 0.00 0.00 0.00 37 1008.8
20260504012521 70 0 0.0 2.0 0.00 0.00 0.00 37 1008.9
20260504012025 71 219 0.0 1.0 0.00 0.00 0.00 35 1009.0
20260504011541 71 0 0.0 1.0 0.00 0.00 0.00 35 1009.1